Flag for Brazil Weather past 2 weeks in Pirassununga, São Paulo, Brazil

Now
66 °F

Clear.


Feels Like: 66 °F
Forecast: 68 / 84 °F
Wind: No wind

Location: Pirassununga Airport

Current Time: Apr 18, 2015 at 6:38:44 AM

Latest Report: Apr 18, 2015 at 6:00 AM


Visibility: 4 mi

Pressure: 30.04 "Hg

Humidity: 94%

Dew point: 64 °F

Location of PirassunungaLocation

Historic Weather in Pirassununga — Graph

°F

Pirassununga temperature yesterday

Maximum temperature yesterday: 90 °F (at 4:00 PM)
Minimum temperature yesterday: 64 °F (at 6:00 AM)
Average temperature yesterday: 78 °F

Past Weeks' High & Low Weather Summary

 TemperatureHumidityPressure
High90 °F (Apr 3, 3:00 PM)100% (Apr 4, 11:00 PM)30.18 "Hg (Apr 4, 11:00 PM)
Low59 °F (Apr 3, 6:00 AM)38% (Apr 12, 3:00 PM)29.86 "Hg (Apr 4, 3:00 PM)
Average76 °F73%30.02 "Hg
* Reported Apr 2 11:00 PM — Apr 17 11:00 PM, Pirassununga, Weather by CustomWeather, © 2015

Note: Actual official high and low records may vary slightly from our data, if they occured in-between our weather recording intervals... More about our weather records

Advertising

Pirassununga weather history for previous 24 hours

 ConditionsComfort  
Time TempWeatherWind HumidityBarometerVisibility
11:00 PM
Fri, Apr 17
72 °FClear.3 mph83%30.04 "Hg10 mi
10:00 PM72 °FClear.7 mph88%30.01 "Hg10 mi
9:00 PM73 °FClear.5 mph83%30.01 "Hg10 mi
8:00 PM75 °FClear.5 mph78%30.01 "Hg10 mi
7:00 PM77 °FClear.6 mph79%29.98 "Hg10 mi
6:00 PM81 °FPassing clouds.6 mph66%29.98 "HgN/A
5:00 PM86 °FPassing clouds.6 mph52%29.98 "HgN/A
4:00 PM90 °FScattered clouds.3 mph46%29.98 "HgN/A
3:00 PM88 °FScattered clouds.2 mph49%29.98 "HgN/A
2:00 PM86 °FScattered clouds.2 mph55%30.01 "HgN/A
1:00 PM86 °FPassing clouds.5 mph55%30.04 "HgN/A
12:00 PM82 °FSunny.6 mph62%30.07 "Hg10 mi
11:00 AM82 °FSunny.2 mph58%30.09 "Hg10 mi
10:00 AM79 °FClear.3 mph70%30.12 "Hg5 mi
9:00 AM73 °FHaze.5 mph78%30.09 "Hg3 mi
8:00 AM70 °FFog.6 mph88%30.09 "Hg2 mi
7:00 AM66 °FFog.1 mph94%30.07 "Hg2 mi
6:00 AM64 °FFog.3 mph94%30.04 "Hg2 mi
Weather by CustomWeather, © 2015

See weather overviewHow to use our weather pages